STARLINK-30058 (55708 NORAD) Tracking and Keplerian Element Data

This shows tracking and keplerian element data for the satellite.

Feedback or suggestion? Click here.




ElementValue
Catalog55708
NameSTARLINK-30058
Epoch Orbit130
Epoch Day62.91667824
Epoch Year2023
RAAN259.6085
Inclination43.0106
Eccentricity0.0001643
Argument of Perigee280.8346
Mean Anonmoly182.2424
Mean Motion15.66254642
Decay Rate-0.00799845
L11 55708U 23026P 23062.91667824 -.00799845 00000+0 -82909-2 0 9997
L22 55708 43.0106 259.6085 0001643 280.8346 182.2424 15.66254642 1309



Live tracking and technical data element details for STARLINK-30058 (NORAD 55708). STARLINK-30058 can be tracked NOW for your location showing map with azimuth and elevation plus other details from your city location.







IsCatalogInMostPopularTable: catalog: 55708, numindb: 1
Update: records affected: 1



GetName: 55708 STARLINK-30058

Hit Count: updated at: Mon, 20 Mar 2023 12:13:41 GMT